Hutchinson, MN

4:29 PM CDT on May 23, 2017 (GMT -0500)
Hutchinson Municipal-Butler

Weather History for KHCD - January, 2013

Change the Weather History Date:

Friday, January 25, 2013

  Actual Average Record
Temperature  
Mean Temperature 10 °F -  
Max Temperature 20 °F 23 °F 53 °F (2002)
Min Temperature 0 °F 2 °F -21 °F (1979)
Degree Days  
Heating Degree Days 54    
Moisture  
Dew Point 5 °F    
Average Humidity 76    
Maximum Humidity 87    
Minimum Humidity 67    
Precipitation  
Precipitation 0.00 in - - ()
Sea Level Pressure  
Sea Level Pressure 30.09 in    
Wind  
Wind Speed 13 mph (West)    
Max Wind Speed 30 mph    
Max Gust Speed 38 mph    
Visibility 10 miles    
Events Snow    
Averages and records for this station are not official NWS values.
T = Trace of Precipitation, MM = Missing Value Source: NWS Daily Summary

Daily Weather History Graph

Daily Weather History Graph

Search for Another Location

Airport or City:

Trip Planner

Search our weather history database for the weather conditions in past years. The results will help you decide how hot, cold, wet, or windy it might be!

Date:

Astronomy

Jan. 25, 2013 Rise Set
Actual Time 7:44 AM CST 5:16 PM CST
Civil Twilight 7:12 AM CST 5:48 PM CST
Nautical Twilight 6:36 AM CST 6:23 PM CST
Astronomical Twilight 6:02 AM CST 6:58 PM CST
Moon 4:14 PM CST (1/25) 6:24 AM CST (1/25)
Length of Visible Light 10h 35m
Length of Day
9h 32m
Waxing Gibbous, 98% of the Moon is Illuminated
Jan 25
Waxing Gibbous
Jan 26
Full
Feb 3
Last Quarter
Feb 10
New
Feb 17
First Quarter

Hourly Weather History & Observations

Time (CST) Temp. Windchill Dew Point Humidity Pressure Visibility Wind Dir Wind Speed Gust Speed Precip Events Conditions
12:05 AM 14.0 °F 0.5 °F 6.8 °F 73% 30.11 in 10.0 mi South 11.5 mph 16.1 mph N/A   Overcast
12:25 AM 14.0 °F 0.5 °F 8.6 °F 79% 30.10 in 10.0 mi South 11.5 mph - N/A   Overcast
12:45 AM 14.0 °F 0.5 °F 8.6 °F 79% 30.08 in 10.0 mi South 11.5 mph - N/A   Overcast
12:51 AM 14.7 °F 1.4 °F 8.8 °F 77% 30.08 in 10.0 mi South 11.5 mph - N/A   Overcast
1:08 AM 15.4 °F 3.0 °F 9.3 °F 77% 30.06 in 10.0 mi South 10.4 mph - N/A   Overcast
1:28 AM 15.4 °F 2.3 °F 9.5 °F 77% 30.06 in 10.0 mi South 11.5 mph - N/A   Overcast
1:48 AM 15.4 °F 1.6 °F 9.5 °F 77% 30.04 in 10.0 mi South 12.7 mph 18.4 mph N/A   Overcast
2:08 AM 15.4 °F 1.6 °F 9.5 °F 77% 30.03 in 10.0 mi South 12.7 mph 19.6 mph N/A   Overcast
2:28 AM 16.0 °F 2.9 °F 10.0 °F 77% 30.04 in 10.0 mi South 11.5 mph - N/A   Overcast
2:49 AM 16.5 °F 4.3 °F 10.4 °F 77% 30.03 in 10.0 mi South 10.4 mph - N/A   Overcast
3:08 AM 15.4 °F 3.8 °F 10.0 °F 79% 30.01 in 10.0 mi South 9.2 mph - N/A   Overcast
3:28 AM 15.4 °F 3.8 °F 10.4 °F 80% 30.00 in 10.0 mi SSW 9.2 mph - N/A   Overcast
3:49 AM 16.7 °F 5.3 °F 11.1 °F 79% 29.98 in 10.0 mi SSW 9.2 mph - N/A   Overcast
4:08 AM 16.7 °F 4.5 °F 11.3 °F 79% 29.98 in 10.0 mi SSW 10.4 mph - N/A   Overcast
4:28 AM 16.7 °F 3.2 °F 10.9 °F 78% 29.96 in 10.0 mi SSW 12.7 mph - N/A   Overcast
4:48 AM 16.7 °F 3.2 °F 10.9 °F 78% 29.96 in 10.0 mi SSW 12.7 mph 16.1 mph N/A   Overcast
5:08 AM 16.7 °F 4.5 °F 10.9 °F 78% 29.96 in 10.0 mi SW 10.4 mph 18.4 mph N/A   Overcast
5:28 AM 16.7 °F 5.3 °F 10.9 °F 78% 29.95 in 10.0 mi SW 9.2 mph 16.1 mph N/A   Overcast
5:48 AM 16.7 °F 4.5 °F 11.1 °F 79% 29.94 in 10.0 mi WSW 10.4 mph - N/A   Overcast
6:09 AM 16.7 °F 5.3 °F 11.7 °F 81% 29.94 in 10.0 mi WSW 9.2 mph - N/A   Overcast
6:28 AM 16.7 °F 4.5 °F 11.8 °F 81% 29.94 in 10.0 mi WSW 10.4 mph - N/A   Overcast
6:48 AM 16.7 °F 4.5 °F 12.2 °F 82% 29.94 in 10.0 mi WSW 10.4 mph - N/A   Overcast
7:29 AM 19.2 °F 7.0 °F 15.4 °F 85% 29.94 in 10.0 mi WSW 11.5 mph - N/A   Overcast
7:48 AM 19.2 °F 5.3 °F 15.8 °F 87% 29.94 in 10.0 mi West 15.0 mph - N/A   Mostly Cloudy
8:09 AM 19.4 °F 5.0 °F 15.6 °F 85% 29.94 in 10.0 mi West 16.1 mph 20.7 mph N/A   Mostly Cloudy
8:28 AM 20.1 °F 3.1 °F 15.6 °F 83% 29.94 in 5.0 mi West 24.2 mph 29.9 mph N/A Snow Light Snow
8:48 AM 19.2 °F 0.3 °F 12.9 °F 76% 29.95 in 10.0 mi West 29.9 mph 38.0 mph N/A   Scattered Clouds
9:07 AM 16.7 °F -2.8 °F 7.5 °F 67% 29.96 in 10.0 mi West 28.8 mph 35.7 mph N/A   Clear
9:25 AM 15.8 °F -2.3 °F 8.6 °F 73% 29.98 in 10.0 mi NW 23.0 mph 28.8 mph N/A   Clear
9:50 AM 14.0 °F -3.9 °F 5.0 °F 67% 30.01 in 10.0 mi NW 20.7 mph 31.1 mph N/A   Clear
10:10 AM 14.0 °F -2.5 °F 6.8 °F 73% 30.01 in 10.0 mi WNW 17.3 mph 23.0 mph N/A   Clear
10:30 AM 12.2 °F -7.1 °F 3.2 °F 67% 30.03 in 10.0 mi WNW 23.0 mph 32.2 mph N/A   Clear
10:45 AM 12.2 °F -7.5 °F 3.2 °F 67% 30.03 in 10.0 mi WNW 24.2 mph 28.8 mph N/A   Clear
11:05 AM 12.2 °F -6.7 °F 3.2 °F 67% 30.03 in 10.0 mi WNW 21.9 mph 28.8 mph N/A   Clear
11:30 AM 12.2 °F -4.8 °F 3.2 °F 67% 30.05 in 10.0 mi WNW 17.3 mph 27.6 mph N/A   Clear
11:34 AM 12.9 °F -5.3 °F 5.4 °F 72% 30.05 in 10.0 mi WNW 20.7 mph 27.6 mph N/A   Clear
11:48 AM 12.0 °F -5.1 °F 4.3 °F 71% 30.06 in 10.0 mi WNW 17.3 mph 25.3 mph N/A   Clear
12:08 PM 11.8 °F -6.3 °F 4.3 °F 72% 30.06 in 10.0 mi WNW 19.6 mph 26.5 mph N/A   Clear
12:29 PM 11.7 °F -7.0 °F 4.1 °F 72% 30.07 in 10.0 mi WNW 20.7 mph 25.3 mph N/A   Clear
12:48 PM 11.7 °F -6.5 °F 4.3 °F 72% 30.07 in 10.0 mi West 19.6 mph 25.3 mph N/A   Clear
1:08 PM 11.7 °F -6.0 °F 4.6 °F 73% 30.08 in 10.0 mi WNW 18.4 mph 26.5 mph N/A   Clear
1:28 PM 11.7 °F -7.0 °F 4.5 °F 73% 30.08 in 10.0 mi WNW 20.7 mph 27.6 mph N/A   Clear
1:49 PM 11.7 °F -7.4 °F 4.3 °F 72% 30.09 in 10.0 mi West 21.9 mph 25.3 mph N/A   Clear
2:09 PM 11.7 °F -5.0 °F 4.5 °F 73% 30.10 in 10.0 mi WNW 16.1 mph 23.0 mph N/A   Clear
2:28 PM 11.7 °F -7.4 °F 4.8 °F 74% 30.11 in 10.0 mi WNW 21.9 mph 26.5 mph N/A   Clear
2:48 PM 11.7 °F -6.0 °F 5.0 °F 75% 30.12 in 10.0 mi WNW 18.4 mph 26.5 mph N/A   Clear
3:08 PM 11.7 °F -6.0 °F 4.6 °F 73% 30.12 in 10.0 mi WNW 18.4 mph 23.0 mph N/A   Clear
3:28 PM 10.4 °F -7.2 °F 3.4 °F 73% 30.13 in 10.0 mi WNW 17.3 mph 24.2 mph N/A   Clear
3:48 PM 10.4 °F -7.2 °F 3.4 °F 73% 30.13 in 10.0 mi WNW 17.3 mph 23.0 mph N/A   Clear
4:08 PM 9.3 °F -8.0 °F 2.3 °F 73% 30.13 in 10.0 mi WNW 16.1 mph - N/A   Clear
4:28 PM 9.1 °F -7.7 °F 2.3 °F 74% 30.14 in 10.0 mi WNW 15.0 mph - N/A   Clear
4:49 PM 9.1 °F -8.2 °F 2.3 °F 74% 30.16 in 10.0 mi WNW 16.1 mph - N/A   Clear
5:08 PM 9.1 °F -5.6 °F 2.3 °F 74% 30.17 in 10.0 mi WNW 11.5 mph - N/A   Clear
5:28 PM 8.2 °F -7.5 °F 1.4 °F 74% 30.17 in 10.0 mi WNW 12.7 mph - N/A   Clear
5:49 PM 6.6 °F -9.5 °F 0.3 °F 75% 30.18 in 10.0 mi WNW 12.7 mph - N/A   Clear
6:08 PM 6.6 °F -9.5 °F 0.1 °F 75% 30.18 in 10.0 mi WNW 12.7 mph - N/A   Clear
6:28 PM 6.6 °F -8.8 °F 0.5 °F 76% 30.20 in 10.0 mi WNW 11.5 mph - N/A   Clear
6:48 PM 6.6 °F -8.8 °F 0.5 °F 76% 30.21 in 10.0 mi WNW 11.5 mph - N/A   Clear
7:09 PM 5.4 °F -8.6 °F -0.4 °F 77% 30.22 in 10.0 mi WNW 9.2 mph - N/A   Clear
7:28 PM 4.1 °F -10.2 °F -1.3 °F 78% 30.23 in 10.0 mi West 9.2 mph - N/A   Clear
7:48 PM 4.1 °F -12.0 °F -1.3 °F 78% 30.24 in 10.0 mi West 11.5 mph - N/A   Clear
8:08 PM 3.2 °F -13.1 °F -2.2 °F 78% 30.24 in 10.0 mi West 11.5 mph - N/A   Clear
8:28 PM 3.2 °F -13.9 °F -2.2 °F 78% 30.25 in 10.0 mi WNW 12.7 mph - N/A   Clear
8:49 PM 2.8 °F -12.7 °F -2.2 °F 79% 30.26 in 10.0 mi WNW 10.4 mph - N/A   Clear
9:09 PM 2.5 °F -12.2 °F -2.6 °F 79% 30.25 in 10.0 mi NW 9.2 mph - N/A   Clear
9:28 PM 2.1 °F -11.6 °F -2.7 °F 80% 30.25 in 10.0 mi NW 8.1 mph - N/A   Clear
9:48 PM 1.8 °F -9.5 °F -3.1 °F 80% 30.25 in 10.0 mi NW 5.8 mph - N/A   Clear
10:07 PM 1.8 °F -9.5 °F -3.1 °F 80% 30.26 in 10.0 mi NW 5.8 mph - N/A   Clear
10:46 PM 2.1 °F -11.6 °F -3.3 °F 78% 30.27 in 10.0 mi NNW 8.1 mph - N/A   Clear
11:08 PM 1.4 °F -9.9 °F -3.6 °F 79% 30.27 in 10.0 mi NW 5.8 mph - N/A   Clear
11:28 PM 1.4 °F -8.3 °F -4.0 °F 78% 30.28 in 10.0 mi WNW 4.6 mph - N/A   Clear
11:48 PM 0.9 °F -8.9 °F -3.8 °F 81% 30.28 in 10.0 mi NW 4.6 mph - N/A   Clear